When you browse on this site, cookies collect data to enhance your experience and personalize the content and advertising you see.
Visit our Privacy Policy to learn more. By continuing to use the site, you agree to this use of cookies and data.
  • In Schweiz
  • Länderverzeichnis
  • Für 7 Tage
  • Wassertemperatur
  • Satellitenkarten
  • Wetterkarte
  • Widgets
  • user-avatar
    Anmelden

    Stündliche Wetter Serebryanka

    Heute, 21 Februar, Donnerstag

    Zeit Temperatur Niederschläge Wind Luftdruck Luftfeuchtigkeit
    00:00 +5°C° 0 mm 3 m/S 754 mmHg 89%
    01:00 +5°C° 0 mm 3 m/S 754 mmHg 88%
    02:00 +4°C° 0 mm 3 m/S 754 mmHg 88%
    03:00 +4°C° 0 mm 3 m/S 754 mmHg 87%
    04:00 +3°C° 0 mm 3 m/S 754 mmHg 87%
    05:00 +3°C° 0 mm 3 m/S 754 mmHg 86%
    06:00 +3°C° 0 mm 3 m/S 755 mmHg 83%
    07:00 +4°C° 0 mm 4 m/S 755 mmHg 80%
    08:00 +4°C° 0 mm 4 m/S 755 mmHg 77%
    09:00 +5°C° 0 mm 5 m/S 755 mmHg 70%
    10:00 +5°C° 0 mm 6 m/S 755 mmHg 63%
    11:00 +6°C° 0 mm 7 m/S 755 mmHg 56%
    12:00 +6°C° 0 mm 8 m/S 755 mmHg 55%
    13:00 +6°C° 0 mm 8 m/S 755 mmHg 54%
    14:00 +6°C° 0 mm 9 m/S 755 mmHg 53%
    15:00 +5°C° 0 mm 8 m/S 755 mmHg 54%
    16:00 +5°C° 0 mm 7 m/S 755 mmHg 56%
    17:00 +4°C° 0 mm 7 m/S 755 mmHg 57%
    18:00 +4°C° 0 mm 6 m/S 756 mmHg 56%
    19:00 +3°C° 0 mm 5 m/S 756 mmHg 56%
    20:00 +4°C° 0 mm 4 m/S 756 mmHg 55%
    21:00 +4°C° 0 mm 4 m/S 756 mmHg 56%
    22:00 +4°C° 0 mm 3 m/S 757 mmHg 57%
    23:00 +3°C° 0 mm 3 m/S 757 mmHg 58%

    Morgen, 22 Februar, Freitag

    Zeit Temperatur Niederschläge Wind Luftdruck Luftfeuchtigkeit
    00:00 +3°C° 0 mm 3 m/S 757 mmHg 61%
    01:00 +3°C° 0 mm 3 m/S 756 mmHg 65%
    02:00 +3°C° 0 mm 2 m/S 756 mmHg 68%
    03:00 +3°C° 0 mm 2 m/S 756 mmHg 70%
    04:00 +3°C° 0 mm 2 m/S 756 mmHg 72%
    05:00 +3°C° 0 mm 2 m/S 755 mmHg 73%
    06:00 +3°C° 0 mm 2 m/S 755 mmHg 74%
    07:00 +4°C° 0 mm 2 m/S 755 mmHg 74%
    08:00 +5°C° 0 mm 1 m/S 755 mmHg 75%
    09:00 +4°C° 0.2 mm 3 m/S 755 mmHg 73%
    10:00 +5°C° 0.2 mm 4 m/S 754 mmHg 71%
    11:00 +6°C° 0.2 mm 5 m/S 754 mmHg 69%
    12:00 +6°C° 0.6 mm 5 m/S 754 mmHg 69%
    13:00 +6°C° 0.6 mm 5 m/S 753 mmHg 68%
    14:00 +6°C° 0.6 mm 5 m/S 752 mmHg 68%
    15:00 +5°C° 0.6 mm 4 m/S 752 mmHg 74%
    16:00 +4°C° 0.6 mm 4 m/S 752 mmHg 79%
    17:00 +3°C° 0.6 mm 3 m/S 751 mmHg 85%
    18:00 -1°C° 1.6 mm 6 m/S 752 mmHg 88%
    19:00 -4°C° 1.6 mm 8 m/S 752 mmHg 90%
    20:00 -8°C° 1.6 mm 10 m/S 752 mmHg 93%
    21:00 -8°C° 1 mm 10 m/S 753 mmHg 93%
    22:00 -9°C° 1 mm 10 m/S 753 mmHg 92%
    23:00 -10°C° 1 mm 10 m/S 754 mmHg 91%

    übermorgen, 23 Februar, Samstag

    Zeit Temperatur Niederschläge Wind Luftdruck Luftfeuchtigkeit
    00:00 -10°C° 0.6 mm 10 m/S 754 mmHg 91%
    01:00 -12°C° 0.6 mm 10 m/S 755 mmHg 90%
    02:00 -11°C° 0.6 mm 9 m/S 755 mmHg 89%
    03:00 -12°C° 0.2 mm 9 m/S 755 mmHg 87%
    04:00 -12°C° 0.2 mm 9 m/S 756 mmHg 85%
    05:00 -12°C° 0.2 mm 9 m/S 756 mmHg 83%
    06:00 -12°C° 0 mm 9 m/S 757 mmHg 82%
    07:00 -12°C° 0 mm 9 m/S 757 mmHg 81%
    08:00 -12°C° 0 mm 9 m/S 758 mmHg 80%
    09:00 -12°C° 0 mm 8 m/S 758 mmHg 79%
    10:00 -11°C° 0 mm 8 m/S 759 mmHg 78%
    11:00 -11°C° 0 mm 8 m/S 759 mmHg 78%
    12:00 -10°C° 0 mm 8 m/S 759 mmHg 77%
    13:00 -9°C° 0 mm 7 m/S 760 mmHg 76%
    14:00 -9°C° 0 mm 7 m/S 760 mmHg 76%
    15:00 -9°C° 0 mm 6 m/S 760 mmHg 76%
    16:00 -9°C° 0 mm 6 m/S 761 mmHg 77%
    17:00 -9°C° 0 mm 6 m/S 761 mmHg 78%
    18:00 -10°C° 0 mm 5 m/S 761 mmHg 78%
    19:00 -10°C° 0 mm 5 m/S 762 mmHg 78%
    20:00 -10°C° 0 mm 5 m/S 762 mmHg 78%
    21:00 -11°C° 0 mm 5 m/S 762 mmHg 79%
    22:00 -11°C° 0 mm 5 m/S 762 mmHg 80%
    23:00 -11°C° 0 mm 5 m/S 762 mmHg 81%

    24 Februar, Sonntag

    Zeit Temperatur Niederschläge Wind Luftdruck Luftfeuchtigkeit
    00:00 -11°C° 0 mm 5 m/S 762 mmHg 82%
    01:00 -11°C° 0 mm 4 m/S 762 mmHg 83%
    02:00 -11°C° 0 mm 4 m/S 762 mmHg 84%
    03:00 -11°C° 0 mm 4 m/S 762 mmHg 84%
    04:00 -11°C° 0 mm 4 m/S 762 mmHg 85%
    05:00 -12°C° 0 mm 4 m/S 762 mmHg 85%
    06:00 -11°C° 0 mm 4 m/S 762 mmHg 85%
    07:00 -11°C° 0 mm 4 m/S 763 mmHg 84%
    08:00 -11°C° 0 mm 4 m/S 763 mmHg 84%
    09:00 -10°C° 0 mm 4 m/S 763 mmHg 82%
    10:00 -9°C° 0 mm 4 m/S 763 mmHg 80%
    11:00 -9°C° 0 mm 4 m/S 763 mmHg 78%
    12:00 -8°C° 0 mm 4 m/S 763 mmHg 78%
    13:00 -8°C° 0 mm 4 m/S 763 mmHg 77%
    14:00 -7°C° 0 mm 3 m/S 762 mmHg 77%
    15:00 -7°C° 0 mm 3 m/S 762 mmHg 78%
    16:00 -7°C° 0 mm 3 m/S 762 mmHg 78%
    17:00 -6°C° 0 mm 2 m/S 762 mmHg 79%
    18:00 -7°C° 0 mm 2 m/S 762 mmHg 80%
    19:00 -7°C° 0 mm 2 m/S 763 mmHg 81%
    20:00 -7°C° 0 mm 2 m/S 763 mmHg 82%
    21:00 -7°C° 0 mm 2 m/S 763 mmHg 83%
    22:00 -7°C° 0 mm 2 m/S 762 mmHg 83%
    23:00 -7°C° 0 mm 2 m/S 762 mmHg 84%

    25 Februar, Montag

    Zeit Temperatur Niederschläge Wind Luftdruck Luftfeuchtigkeit
    00:00 -7°C° 0 mm 2 m/S 762 mmHg 84%
    01:00 -6°C° 0 mm 1 m/S 762 mmHg 84%
    02:00 -6°C° 0 mm 1 m/S 761 mmHg 84%
    03:00 -6°C° 0 mm 1 m/S 761 mmHg 84%
    04:00 -7°C° 0 mm 1 m/S 761 mmHg 84%
    05:00 -7°C° 0 mm 1 m/S 760 mmHg 84%
    06:00 -6°C° 0 mm 1 m/S 760 mmHg 84%
    07:00 -6°C° 0 mm 1 m/S 760 mmHg 83%
    08:00 -4°C° 0 mm 1 m/S 760 mmHg 82%
    09:00 -3°C° 0 mm 1 m/S 759 mmHg 79%
    10:00 -3°C° 0 mm 1 m/S 759 mmHg 76%
    11:00 -4°C° 0 mm 2 m/S 759 mmHg 73%
    12:00 -3°C° 0 mm 2 m/S 758 mmHg 71%
    13:00 -3°C° 0 mm 2 m/S 757 mmHg 69%
    14:00 -2°C° 0 mm 2 m/S 757 mmHg 67%
    15:00 -2°C° 0.1 mm 2 m/S 756 mmHg 72%
    16:00 -3°C° 0.1 mm 2 m/S 756 mmHg 77%
    17:00 -3°C° 0.1 mm 2 m/S 756 mmHg 82%
    18:00 -4°C° 0 mm 2 m/S 755 mmHg 82%
    19:00 -4°C° 0 mm 2 m/S 755 mmHg 83%
    20:00 -5°C° 0 mm 2 m/S 755 mmHg 83%
    21:00 -3°C° 0 mm 1 m/S 755 mmHg 82%
    22:00 -3°C° 0 mm 1 m/S 754 mmHg 82%
    23:00 -3°C° 0 mm 1 m/S 754 mmHg 81%

    26 Februar, Dienstag

    Zeit Temperatur Niederschläge Wind Luftdruck Luftfeuchtigkeit
    00:00 -3°C° 0 mm 1 m/S 753 mmHg 81%
    01:00 -4°C° 0 mm 1 m/S 753 mmHg 81%
    02:00 -5°C° 0 mm 0 m/S 752 mmHg 80%
    03:00 -3°C° 0 mm 1 m/S 752 mmHg 82%
    04:00 -3°C° 0 mm 1 m/S 752 mmHg 84%
    05:00 -4°C° 0 mm 2 m/S 752 mmHg 86%
    06:00 -4°C° 0 mm 2 m/S 752 mmHg 86%
    07:00 -3°C° 0 mm 2 m/S 752 mmHg 86%
    08:00 -2°C° 0 mm 3 m/S 752 mmHg 87%
    09:00 -3°C° 0 mm 4 m/S 752 mmHg 85%
    10:00 -2°C° 0 mm 5 m/S 752 mmHg 83%
    11:00 -3°C° 0 mm 6 m/S 751 mmHg 82%
    12:00 -2°C° 0.1 mm 6 m/S 751 mmHg 79%
    13:00 -2°C° 0.1 mm 6 m/S 751 mmHg 77%
    14:00 -2°C° 0.1 mm 6 m/S 750 mmHg 75%
    15:00 -1°C° 0 mm 5 m/S 750 mmHg 75%
    16:00 -2°C° 0 mm 5 m/S 750 mmHg 76%
    17:00 -2°C° 0 mm 4 m/S 750 mmHg 76%
    18:00 -2°C° 0 mm 4 m/S 750 mmHg 77%
    19:00 -1°C° 0 mm 3 m/S 750 mmHg 79%
    20:00 -1°C° 0 mm 3 m/S 750 mmHg 80%
    21:00 -1°C° 0 mm 3 m/S 749 mmHg 79%
    22:00 -1°C° 0 mm 3 m/S 749 mmHg 78%
    23:00 -1°C° 0 mm 3 m/S 748 mmHg 77%
    Mehr zeigen